星链-30037 (STARLINK-30037 )

导读

STARLINK-30037是美国太空探索技术公司SpaceX星链星座中的一员,该卫星于2023年2月27日发射入轨,星链项目旨在为全球提供高速卫星互联网接入服务,这颗卫星补充完善了星链低轨卫星通信网络的覆盖范围与服务能力,助力全球网络覆盖。

基本信息
目录编号:
55712
目录名称:
STARLINK-30037
国际标识:
2023-026T
轨道中心:
EARTH
卫星名称:
星链-30037
卫星全名:
星链-30037 (STARLINK-30037 )
卫星状态:
已陨落 最后检测时间 2024-07-25
发射日期:
2023-02-27 UTC
国别 :
美国 (US)
星等 :
--
该卫星已列入 空间交会检测服务 Space Conjunction Data Service (SCDS) ,当前飞行风险评估等级: 无高风险
轨道信息
数据来源 国际轨道数据
星历时间: 2024-07-24T08:18:28+0800
轨道信息已过期780天
半长轴: 6622.081km
偏心率: 0.0015697
轨道倾角: 42.992°
近地点辐角 283.495°
升交点赤经 70.046°
平近点角 76.418°
近地点: 233.551km
远地点: 254.341km
周期: 89.382分钟
每日圈数: 16.110578
详细信息
固有亮度:
5
最大亮度:
0.4
卫星平台:
Starlink v2.0 mini
覆盖范围:
全球
运营商:
太空探索技术公司
运营商所在国:
美国
制造商(研发单位):
太空探索技术公司
制造商所在国:
美国
使用方式:
暂无
卫星简介
星链(Starlink)计划是由太空探索技术公司(SpaceX)提出的一个巨型低轨卫星互联网星座项目,计划在2019年至2024年间在太空搭建由约1.2万颗卫星组成的“星链”网络,其中1584颗将部署在地球上空550千米处的近地轨道,并从2020年开始工作。该卫星仍在工作。
与全量物体交会距离演化趋势
与全量物体交会风险概率演化趋势